Voltar ao catálogo

STARLINK-37745

AtivoComunicaçõesSSO
NORAD 69232·PAYLOAD·🇺🇸 United States

Lançado May 26, 2026 de Vandenberg Space Force Base

Loading…

Próximas Passagens (próximas 24 horas)

TLE

AtualizadoSource: CelesTrak SupGP

Época: Sep 14, 2026, 22:41 UTC

1 69232C 26115X   26257.94562500  .00044453  00000+0  13800-2 0  2570
2 69232  97.2830 274.1927 0001430  88.5246 275.5240 15.33414098    10

Acompanhe STARLINK-37745 em tempo real com AllMySat

Download on the App Store